[Date Prev][Date Next][Thread Prev][Thread Next] - [Date Index][Thread Index][Author Index]

MIR & ISS Keps 3-19



MIR
1 16609U 86017A   99078.19889168  .00038509  00000-0  27852-3 0  3184
2 16609  51.6607  85.1592 0011745 258.1582 101.8115 15.72991738747241


ISS
1 25544U 98067A   99077.81854173  .00018510  00000-0  24063-3 0  4087
2 25544  51.5920 292.8579 0004469 237.5435 122.5099 15.58826858 18494

----
Via the sarex mailing list at AMSAT.ORG courtesy of AMSAT-NA.
To unsubscribe, send "unsubscribe sarex" to Majordomo@amsat.org



AMSAT Top AMSAT Home